sat.trackr.live / text

‹ back to catalog

OVZON-3

NORAD 58698 · 2024-003A

PAYLOAD ACTIVE UNKNOWN

§ Identity

Operator
Country
SWED
Launch date
2024-01-03
Launch site
AFETR
Launch vehicle
Mass (kg)
RCS (m²)

Purposes: comms

External: N2YO · Heavens-Above · Gunter

§ Orbital elements

Epoch: 2026-09-19T22:23:12.661152Z

Period
1,436.06 min
Inclination
0.0118°
Eccentricity
0.0000450
Mean motion
1.00274345 rev/d
Perigee alt
35,784.0 km
Apogee alt
35,787.8 km
Semi-major
42,164.0 km
B*
0.0000e+0
RAAN
184.3674°
Arg perigee
267.6671°
Mean anomaly
302.3280°
Rev number
839

§ Raw data

OVZON-31 58698U 24003A   26262.93278543  .00000047  00000+0  00000+0 0  99932 58698   0.0118 184.3674 0000450 267.6671 302.3280  1.00274345  8399

JSON: /api/v1/satellites/58698 · /tle

For live sub-satellite position, see the globe view (requires WebGL).

§ Visibility from observer

Set your observer location to see the next 7 days of passes ≥ 10°. The values pass through the URL so the page stays shareable.

No JS? Fill the form by hand. The geolocation button needs JavaScript.